Vorticity
8 9 8 7 6 5 5 6 6 7 6 7 11 13 18 20 12 6 7 5 5 6 6 6 6 6 5 4 5 5 5 5 5 4 6 6 4 5 3 2 3 1 3 4 3 -0 0 3 1 2 -0 2 13 15 15 14 9 16 20 23 23 5 7 28 25 11 11 18 19 16 15 6 4 12 4 4 18 11 4 6 6 11 13 16 17 13 14 14
8 9 9 6 5 5 5 6 7 6 6 7 11 13 16 13 7 6 5 4 5 5 5 6 6 6 6 6 7 6 8 8 5 5 8 8 8 8 8 11 13 9 7 6 5 4 2 5 3 2 3 4 15 12 3 12 16 17 19 14 17 18 13 19 23 18 21 22 14 11 3 2 11 8 4 8 13 4 2 9 11 15 16 14 12 11 13 8
8 9 8 5 5 5 5 6 7 6 6 7 13 16 14 9 6 4 4 5 5 5 5 5 6 6 7 6 6 9 10 10 10 13 12 9 10 11 16 17 14 13 10 8 8 12 8 7 11 10 9 11 19 11 -0 16 22 15 14 11 20 25 12 8 15 15 16 12 7 10 4 8 14 8 6 8 10 8 9 13 15 17 13 11 12 11 9 5
9 9 7 6 4 4 6 6 6 6 6 8 15 16 11 7 5 4 4 5 4 6 6 5 7 6 7 5 5 7 7 10 12 13 9 10 15 17 21 15 10 15 15 12 9 10 10 9 14 17 17 16 22 21 14 17 13 11 16 11 13 17 13 13 12 10 8 5 9 15 16 10 3 6 6 7 19 22 18 13 12 13 11 12 12 8 5 5
10 9 7 5 3 5 6 6 6 6 7 10 15 14 10 9 7 6 5 5 5 7 7 8 10 10 12 13 14 14 12 13 11 8 7 11 14 15 20 14 11 14 15 16 11 7 9 11 13 9 10 11 16 22 20 16 10 10 14 11 11 9 14 16 7 8 9 8 12 14 15 10 7 14 9 13 24 19 14 11 11 13 11 11 8 5 6 5
10 9 6 5 4 5 5 5 6 5 7 12 16 13 11 10 10 10 8 8 8 9 12 12 12 12 12 13 14 17 18 14 10 7 8 13 14 13 14 10 9 10 15 18 13 13 10 10 17 14 12 18 19 16 17 18 13 13 13 12 16 8 6 12 8 11 11 10 18 19 16 15 17 19 13 20 18 6 11 13 12 13 9 8 6 5 5 5
11 9 6 6 4 4 5 6 6 5 7 14 17 13 11 11 12 13 11 9 9 8 9 9 9 7 5 7 8 12 16 13 10 9 11 17 16 10 4 2 9 17 26 29 25 31 24 9 15 21 19 21 20 16 18 17 11 14 14 11 17 13 11 16 13 14 14 12 20 23 23 21 17 14 12 17 13 7 11 11 9 9 6 5 4 3 4 4
11 9 6 6 3 4 5 5 6 6 6 13 17 11 9 10 10 11 9 8 8 4 3 5 4 0 -2 1 3 7 12 11 10 10 10 10 7 9 11 9 13 17 19 19 18 24 27 20 16 19 16 8 9 11 10 9 10 13 11 10 16 14 13 15 11 11 13 11 12 14 16 15 10 11 14 14 12 10 9 9 8 7 6 4 3 4 4 3
11 10 7 6 3 4 6 4 6 6 6 13 15 11 9 9 8 7 7 6 6 4 5 4 1 5 8 5 4 7 9 8 8 11 11 8 6 11 13 6 5 9 8 7 11 12 14 15 7 7 11 7 7 11 9 6 8 12 10 8 9 8 8 9 8 7 7 5 5 7 8 8 10 11 10 11 12 11 10 9 9 7 5 4 3 3 2 1
10 10 8 6 4 4 5 4 5 6 6 12 15 12 9 9 7 6 4 3 4 6 6 6 9 17 17 9 7 9 8 7 9 9 8 10 9 9 10 9 7 7 6 4 5 6 6 8 5 4 4 3 3 3 5 6 5 6 7 6 5 6 6 6 6 7 7 7 6 7 7 7 10 9 7 11 12 10 8 7 7 7 4 3 2 2 2 1
9 11 9 6 5 4 5 4 3 5 4 9 17 12 7 8 6 3 3 5 7 9 9 10 13 16 10 6 9 9 6 7 8 4 5 11 9 8 11 12 10 5 4 4 3 3 2 1 5 4 -2 -2 3 2 1 3 4 4 3 5 5 5 6 7 8 8 5 4 6 7 8 8 7 6 7 9 9 6 6 6 6 5 3 2 1 1 1 1
10 11 9 6 5 5 5 4 3 4 2 6 15 13 9 7 3 1 5 9 10 10 10 9 10 12 8 7 10 7 4 7 11 9 9 13 9 8 7 2 6 9 8 5 3 3 -0 -4 0 6 10 12 9 6 7 6 5 4 3 5 5 5 6 6 5 6 4 3 6 6 4 7 6 6 7 7 8 7 6 6 5 5 4 2 2 2 1 2
10 10 11 7 5 7 6 4 3 3 3 3 9 14 11 4 0 3 8 9 9 9 8 7 9 10 8 9 8 5 7 8 11 11 9 10 7 7 6 3 6 9 6 1 -0 6 7 7 6 3 6 9 9 8 6 5 6 6 4 5 6 6 5 7 7 7 9 7 6 7 5 6 7 6 7 6 5 7 8 6 5 5 4 4 4 3 2 2
10 11 11 8 5 8 5 4 4 2 4 2 4 12 10 3 1 5 6 6 9 10 10 12 13 11 10 10 5 4 9 6 5 8 9 9 6 5 4 5 5 1 0 -2 -1 4 2 2 3 3 6 7 7 8 4 2 6 6 4 3 7 10 8 7 6 5 10 8 3 5 6 6 7 7 8 9 6 6 8 5 6 7 4 5 5 4 4 3
10 10 12 9 5 8 6 4 5 2 4 2 1 7 6 2 2 4 5 5 9 10 10 9 8 8 6 4 4 4 7 8 9 8 9 9 5 4 5 7 5 3 5 6 8 3 -8 2 15 12 11 10 5 5 10 11 9 4 1 1 4 10 10 9 7 5 8 7 6 5 5 7 6 7 11 10 7 7 9 6 6 8 5 5 6 5 5 3
9 11 13 10 5 8 6 3 4 3 3 3 2 3 2 1 1 3 3 5 9 10 7 4 7 14 11 7 8 5 6 9 10 9 8 8 4 2 5 6 3 4 5 1 6 2 -18 -7 18 13 2 6 6 2 6 12 10 7 6 0 1 4 5 12 14 9 7 7 9 7 5 9 6 6 11 9 7 7 7 6 6 7 5 6 6 6 5 3
8 10 13 11 6 7 7 4 4 3 3 3 3 2 0 -1 -1 1 3 5 6 9 10 8 9 13 11 9 8 6 8 7 7 10 10 9 7 5 5 6 3 4 0 -13 -10 0 -5 2 14 9 4 7 7 5 9 15 9 8 13 -1 -6 5 5 10 9 2 6 6 6 9 8 9 8 7 8 6 8 6 4 6 6 5 5 6 5 6 7 4
8 10 13 12 6 5 7 5 5 4 3 4 3 3 2 0 0 1 2 4 3 2 4 6 3 4 6 6 6 8 8 8 8 6 7 7 4 2 1 -1 -4 -6 -8 -12 -10 -3 3 15 10 -7 -3 4 7 9 4 7 6 3 16 8 -1 8 1 2 8 4 12 12 4 7 9 10 10 8 8 8 9 6 5 6 6 7 5 6 6 5 7 6
8 9 12 12 6 5 6 6 8 6 6 6 4 6 4 2 4 5 3 4 6 2 2 7 3 1 7 6 5 8 7 6 7 5 6 4 0 4 2 -1 7 7 3 2 0 1 1 6 9 -1 1 9 12 7 -12 -6 11 4 8 9 5 7 -3 5 18 8 4 6 3 7 11 12 9 7 8 10 11 8 8 8 7 9 7 6 8 8 9 9
9 9 11 12 7 5 7 6 6 7 7 6 6 7 4 1 3 5 3 2 6 9 11 8 -7 -12 2 8 4 5 7 5 4 6 5 1 2 4 1 5 11 4 7 16 3 -2 4 3 8 10 8 10 6 -2 -6 7 17 7 5 6 2 5 1 4 12 6 -1 -1 2 4 7 11 10 9 7 5 9 7 6 9 8 8 8 9 9 10 11 11
7 9 10 10 7 6 8 4 0 5 6 4 7 5 2 8 6 -1 0 2 2 4 7 8 3 8 18 14 3 2 6 4 4 7 4 5 6 3 7 6 -5 -19 -12 10 4 -6 7 5 4 12 13 16 15 7 5 7 10 7 6 8 7 6 8 9 5 6 9 4 2 -1 -1 6 7 9 10 7 8 6 4 5 6 7 7 7 7 8 10 9
6 9 10 10 8 5 9 6 -2 1 3 2 6 2 1 13 11 4 8 6 2 -3 -4 2 9 16 18 10 6 7 4 -2 -1 6 5 6 4 3 6 -7 -10 -1 -14 -10 10 13 15 8 5 17 10 -2 10 18 -1 -13 13 31 12 3 10 1 0 11 7 6 13 11 7 -1 -2 6 5 6 8 7 7 5 4 4 3 6 5 3 4 4 5 5
5 7 9 10 9 6 7 8 2 1 3 3 1 0 6 12 8 9 12 5 4 6 2 4 7 4 2 3 8 3 -2 -1 1 7 6 3 4 3 5 4 11 18 -0 -1 19 14 2 2 9 18 8 -9 -7 7 3 -12 6 28 15 5 10 8 3 4 3 7 12 9 7 4 2 5 4 7 8 5 6 5 4 5 4 5 5 3 4 3 3 4
6 6 9 10 9 9 5 5 5 0 1 4 -0 -1 3 6 6 9 11 5 5 10 6 5 7 6 2 5 12 1 -4 5 6 10 6 -0 7 3 1 12 9 5 7 5 7 7 4 7 6 -5 -2 11 3 -1 10 8 3 4 7 4 1 11 12 1 6 13 7 3 6 6 4 5 3 2 6 5 5 7 7 7 6 5 5 5 6 5 5 7
6 5 7 9 9 12 9 4 3 -1 3 5 -1 0 1 0 4 8 9 5 4 10 10 6 3 6 9 9 10 3 2 10 7 9 5 1 10 5 3 5 -6 6 15 -10 -12 9 11 13 15 2 1 8 4 4 3 5 13 3 -4 3 2 11 9 -2 10 17 8 9 12 8 -0 0 5 1 3 7 5 6 7 7 8 7 8 7 7 6 6 7
5 6 6 8 8 10 11 10 9 8 10 2 -5 5 8 3 4 8 10 6 5 7 9 15 12 5 8 11 9 5 11 17 10 4 2 5 6 0 11 7 -6 16 23 5 14 18 1 4 17 17 14 3 -0 18 12 -0 17 13 2 9 6 8 4 -10 1 9 5 6 8 14 6 -4 4 6 1 5 8 6 5 7 8 7 9 7 4 7 7 7
4 6 5 7 7 7 8 11 13 9 6 8 9 10 8 7 6 6 8 6 6 6 3 10 15 9 7 11 9 1 4 9 5 3 3 5 4 4 14 2 -9 13 15 6 16 18 8 2 3 0 -2 7 7 8 5 -3 8 17 13 7 -5 3 6 -8 -1 6 7 13 10 12 12 -4 -2 11 8 2 4 5 4 8 8 4 6 6 5 9 8 6
4 5 5 6 6 7 6 6 8 3 1 17 24 14 8 12 8 5 8 6 10 17 9 -2 2 12 10 7 3 -10 -2 16 12 8 7 2 4 8 7 3 10 15 4 -0 1 13 20 -1 4 9 -9 11 26 6 2 -0 3 16 17 11 7 14 11 -4 2 5 1 12 13 7 12 8 2 7 8 4 1 1 4 8 7 7 7 7 8 8 8 9
6 3 5 6 4 7 7 3 4 2 0 8 15 13 13 13 7 8 9 3 7 12 5 2 7 8 2 6 7 -5 4 18 11 8 8 4 8 9 3 11 26 10 -9 5 3 4 18 2 7 18 -2 13 28 12 12 7 6 20 16 7 6 6 6 4 11 15 6 7 11 6 10 18 14 1 -3 3 5 2 6 8 7 10 9 6 7 8 12 10
7 4 4 5 6 7 6 4 6 7 4 3 9 13 13 13 9 9 6 -1 5 5 -2 9 19 10 4 6 5 6 11 5 2 9 7 4 6 8 9 10 20 11 -7 4 4 -5 11 12 8 13 8 15 16 8 13 8 7 16 6 -2 -1 3 12 15 11 12 11 11 9 1 6 19 17 2 -4 -0 3 4 7 10 10 10 7 5 8 10 13 9
7 5 4 4 7 7 5 4 6 11 9 6 11 12 12 16 9 6 9 1 5 10 0 -1 7 8 11 12 6 7 13 7 8 12 6 9 8 4 11 3 -3 5 6 12 9 -2 7 14 10 11 9 9 10 7 3 2 10 12 4 4 7 7 10 12 9 5 9 16 10 -2 6 16 4 -3 4 3 3 6 7 9 10 7 3 6 9 7 9 10
8 6 5 3 6 6 4 6 5 7 8 6 11 12 13 17 10 8 13 5 4 16 15 2 0 5 8 19 17 1 3 10 8 5 2 0 -2 -1 9 8 -5 -1 20 28 7 -3 8 4 2 13 11 6 9 5 -5 0 11 9 6 10 11 13 14 7 3 4 6 8 8 -1 1 13 8 -1 1 2 5 7 6 8 7 7 7 7 10 9 8 10
9 7 6 4 4 4 4 8 7 5 6 7 9 11 13 14 10 10 10 5 -2 6 20 12 1 7 5 11 14 3 10 14 -2 4 12 -1 -7 -4 -3 5 5 -0 17 27 8 10 12 -11 -4 21 18 8 4 0 3 7 3 -1 6 10 3 7 13 6 5 16 14 4 6 4 -2 10 18 6 -7 -4 7 9 8 10 6 6 9 9 12 13 9 12
10 9 7 5 3 3 5 5 7 6 5 8 9 9 14 15 14 12 7 8 -0 -7 11 13 1 8 8 6 11 12 17 12 -2 6 13 7 10 11 1 4 7 -2 -4 5 13 20 5 -9 8 14 3 6 6 5 17 18 4 3 12 8 0 3 4 4 10 11 7 3 2 3 6 9 12 7 -5 -7 6 12 10 10 7 6 10 12 12 9 8 12
9 10 7 8 4 2 4 2 6 9 4 8 9 8 17 21 17 8 -3 7 11 -4 1 10 7 10 12 15 16 9 6 11 14 8 -2 5 13 10 9 7 7 10 1 -0 19 19 -0 4 10 -8 -10 6 7 10 17 12 7 13 16 5 5 15 8 9 16 4 4 13 2 4 14 4 1 9 2 -4 6 11 7 5 6 9 11 12 11 9 10 10
5 10 7 9 7 3 3 1 4 9 5 6 8 8 21 25 13 4 -3 2 13 11 5 5 8 10 13 20 17 4 0 6 14 7 -1 11 11 4 14 9 1 14 9 0 17 18 4 11 9 2 13 16 9 11 6 2 4 5 10 8 5 9 6 12 16 1 8 17 0 6 16 -2 -1 11 4 2 5 3 7 10 5 8 12 10 9 10 10 9
1 8 9 8 8 5 4 1 2 6 6 6 5 7 20 24 10 4 8 6 8 14 10 2 8 14 10 9 13 13 6 5 14 9 -0 8 4 -5 8 12 1 8 11 4 8 11 6 9 10 10 15 11 11 13 5 12 10 -12 2 24 14 3 5 14 9 -3 8 13 -1 8 19 6 2 4 2 6 4 -0 8 12 6 11 15 10 7 7 7 8
1 4 9 8 9 7 4 3 2 3 5 5 5 7 13 18 7 -3 10 20 12 4 3 10 17 13 4 3 13 19 5 2 19 17 3 9 12 -1 -2 5 1 1 9 6 3 10 10 7 8 8 8 8 14 15 6 13 13 -3 11 28 14 4 8 10 8 2 4 9 7 10 12 7 4 6 7 1 -1 6 8 9 11 13 12 10 8 6 5 8
3 1 7 8 9 9 5 4 3 1 3 4 7 9 8 12 6 -9 0 19 15 1 2 18 19 3 2 7 11 16 4 -8 7 15 6 8 16 13 4 8 12 8 8 5 0 7 8 3 3 6 10 9 11 16 12 10 9 3 10 12 4 11 14 6 8 8 -2 2 15 11 4 9 10 8 6 -6 -5 10 9 9 14 11 8 9 7 6 6 8
7 1 3 6 8 10 6 5 4 -0 2 4 7 10 5 8 8 -5 -2 14 19 13 2 7 16 12 12 8 4 14 8 -6 2 11 6 4 9 8 -3 -0 13 10 7 8 3 5 8 7 5 1 2 6 9 11 10 11 8 1 7 7 -2 3 5 -1 7 13 5 5 11 3 -1 8 3 -10 -7 -2 4 13 13 11 11 7 7 7 5 7 8 7
8 3 2 4 6 11 8 4 5 2 2 3 6 10 7 6 5 -0 8 18 18 16 2 -3 18 26 12 0 3 12 6 -2 4 5 3 5 7 8 4 7 13 6 5 10 8 11 11 3 3 4 0 9 14 5 -1 7 9 4 8 8 2 4 5 4 8 10 9 11 8 1 -1 4 1 -4 3 10 9 12 15 11 7 7 7 6 7 8 8 8
8 6 3 3 3 8 9 6 5 4 4 3 3 8 7 6 4 -2 8 14 8 13 8 -6 10 24 6 -9 4 17 10 -1 0 5 8 4 3 11 11 10 12 4 2 6 7 18 16 0 4 7 3 11 12 1 0 9 10 8 6 3 7 9 3 2 6 6 9 10 6 9 10 6 8 9 8 11 9 7 9 8 5 6 6 8 9 8 8 9
7 7 5 3 2 5 7 9 7 4 6 4 2 7 5 5 7 -4 2 15 9 13 13 -7 -5 13 7 -3 7 21 16 -1 -8 2 9 -0 -1 13 10 5 12 11 9 7 5 14 14 4 6 1 -2 10 8 2 13 16 11 10 9 10 9 2 -1 3 5 7 8 2 3 12 11 6 9 5 1 10 13 7 8 8 3 2 6 9 10 8 8 8
8 8 8 4 4 4 4 9 9 5 8 5 2 6 1 4 14 2 -2 12 12 9 11 4 2 7 7 7 9 9 14 14 0 -8 1 5 3 7 7 5 7 8 10 6 0 7 9 7 10 -0 -2 13 10 7 19 20 13 9 6 14 14 5 6 8 6 9 6 3 12 12 -0 0 9 5 2 10 12 9 10 8 1 1 7 11 10 10 9 8
10 7 9 6 5 5 3 7 10 6 8 8 3 5 -1 -2 12 12 -1 -1 7 10 7 4 7 6 2 8 8 2 9 21 9 -13 -8 10 12 9 7 8 7 5 8 7 3 6 5 5 13 3 -5 6 7 3 9 11 14 14 8 12 14 10 9 7 7 8 1 4 18 9 -8 -1 10 9 9 11 9 9 10 6 3 5 8 10 11 10 10 9
13 8 10 6 3 6 2 3 9 5 5 12 8 4 1 -5 1 11 5 -5 0 10 6 1 6 8 3 2 7 8 6 10 11 -0 -10 -8 4 16 12 4 3 -0 1 8 9 8 4 3 10 6 -3 1 3 0 2 4 9 13 11 11 11 9 10 8 9 8 1 3 11 7 -1 2 8 8 9 9 7 6 7 7 7 8 9 10 10 9 10 10
13 10 9 8 4 5 3 1 7 4 0 10 14 8 6 3 -0 5 8 1 -2 1 4 5 5 5 6 2 3 8 7 6 8 7 2 -7 -7 4 8 4 5 3 2 7 7 5 6 3 4 7 6 5 2 1 4 6 5 5 7 10 10 8 8 6 6 8 7 4 4 7 7 5 6 6 5 9 8 5 6 6 6 8 10 9 7 7 8 8
9 9 5 9 7 5 4 0 4 7 -0 1 9 12 11 9 3 2 7 8 5 2 4 6 2 0 4 5 4 5 6 8 8 3 6 6 -3 -3 8 13 10 5 4 6 5 5 8 6 4 6 7 7 5 5 6 7 6 5 6 7 7 6 6 8 7 7 9 7 3 5 7 7 7 4 3 9 9 5 5 6 7 10 10 9 7 7 8 8
6 13 6 5 8 6 5 3 2 6 5 0 1 6 12 14 7 1 4 7 6 4 4 6 6 3 2 3 4 6 5 5 9 8 4 2 -1 -1 6 13 13 10 7 6 8 7 6 7 7 4 5 7 7 6 7 7 6 6 6 6 6 7 8 9 9 7 7 7 4 4 8 9 8 6 4 6 7 5 5 6 8 10 8 7 7 7 8 9
-1 14 14 5 9 9 5 6 9 5 2 5 5 0 4 14 14 5 0 3 6 5 4 5 5 1 2 3 2 8 13 3 -1 9 12 4 3 3 -1 2 9 12 8 4 5 6 6 7 6 4 4 6 5 6 7 6 6 7 7 6 5 7 8 9 9 8 8 8 6 6 8 6 8 10 9 7 6 6 7 8 9 8 7 7 7 8 8 9
-3 4 17 7 7 13 4 0 11 11 2 3 7 4 1 6 14 12 3 1 9 11 3 2 6 2 1 4 1 5 14 6 -5 3 10 3 1 6 4 -1 2 9 13 11 9 7 6 6 6 6 5 4 8 9 8 7 7 6 6 6 5 7 8 9 8 7 8 8 6 7 6 4 7 9 8 9 9 7 7 8 7 6 6 6 6 8 7 8
11 -5 13 12 3 11 10 -0 4 12 9 6 5 6 5 3 8 15 8 -2 5 15 9 4 9 10 5 1 -1 0 5 7 4 6 7 1 -4 4 10 4 1 6 9 11 11 9 8 8 7 6 6 7 9 8 6 10 12 10 7 6 7 10 10 11 10 9 8 7 7 9 5 2 3 4 5 9 10 7 7 7 6 5 6 6 7 7 6 7
Height
5803 5802 5801 5801 5800 5800 5799 5799 5799 5798 5797 5795 5794 5792 5791 5790 5790 5789 5789 5789 5789 5789 5790 5790 5790 5790 5790 5790 5790 5790 5789 5789 5788 5787 5786 5784 5783 5782 5781 5780 5779 5779 5778 5777 5776 5775 5775 5773 5773 5773 5773 5772 5771 5769 5769 5770 5770 5770 5770 5771 5773 5774 5774 5775 5776 5778 5779 5780 5780 5781 5783 5783 5784 5785 5785 5789 5792 5792 5792 5793 5795 5795 5796 5797 5797 5798 5799 5800
5803 5802 5802 5801 5801 5800 5800 5800 5800 5799 5798 5797 5796 5794 5793 5793 5792 5792 5791 5791 5791 5791 5791 5791 5791 5791 5791 5791 5791 5790 5790 5790 5788 5788 5787 5785 5784 5783 5782 5781 5781 5780 5779 5778 5777 5777 5776 5774 5774 5774 5774 5773 5773 5772 5771 5772 5772 5772 5772 5773 5774 5775 5775 5775 5776 5778 5778 5779 5780 5781 5783 5785 5784 5783 5785 5790 5792 5790 5790 5792 5794 5795 5796 5797 5798 5799 5800 5800
5804 5803 5803 5802 5802 5801 5802 5801 5801 5800 5799 5799 5798 5796 5795 5795 5794 5794 5793 5793 5793 5792 5792 5792 5793 5792 5792 5792 5791 5791 5791 5790 5789 5788 5787 5785 5784 5784 5783 5782 5781 5780 5779 5779 5778 5778 5777 5776 5775 5775 5774 5774 5774 5774 5773 5773 5773 5773 5774 5774 5774 5775 5776 5777 5778 5779 5779 5780 5781 5783 5785 5784 5783 5784 5787 5791 5792 5790 5791 5792 5793 5795 5797 5797 5798 5800 5800 5800
5804 5804 5803 5803 5802 5802 5803 5802 5802 5801 5801 5800 5799 5798 5797 5796 5796 5795 5795 5795 5794 5794 5794 5794 5794 5793 5793 5793 5792 5792 5791 5791 5790 5788 5787 5787 5786 5785 5784 5783 5782 5780 5780 5780 5780 5779 5778 5778 5777 5776 5776 5775 5775 5774 5774 5775 5775 5776 5777 5776 5775 5776 5778 5779 5780 5780 5780 5782 5783 5786 5786 5784 5784 5786 5789 5792 5792 5790 5792 5793 5794 5796 5797 5798 5799 5800 5801 5801
5804 5804 5804 5803 5803 5803 5803 5803 5803 5803 5802 5801 5800 5799 5798 5798 5797 5797 5797 5796 5796 5796 5795 5795 5795 5794 5794 5793 5793 5793 5792 5792 5791 5788 5788 5789 5788 5786 5785 5784 5782 5781 5781 5781 5781 5780 5780 5779 5778 5778 5777 5777 5777 5775 5775 5777 5778 5779 5778 5778 5779 5780 5781 5781 5781 5781 5782 5783 5784 5786 5786 5785 5787 5789 5791 5794 5793 5792 5793 5794 5795 5797 5798 5799 5800 5801 5801 5801
5804 5804 5804 5804 5803 5804 5804 5804 5804 5804 5803 5802 5802 5801 5800 5799 5799 5799 5798 5798 5797 5797 5797 5796 5796 5795 5795 5795 5794 5793 5793 5793 5791 5790 5790 5791 5790 5788 5786 5785 5784 5783 5783 5782 5781 5781 5782 5781 5780 5779 5779 5778 5778 5778 5778 5779 5780 5780 5779 5779 5780 5781 5782 5783 5783 5782 5783 5783 5785 5787 5787 5788 5789 5790 5793 5796 5794 5793 5793 5795 5796 5797 5798 5800 5801 5802 5802 5802
5805 5805 5805 5804 5804 5804 5805 5805 5805 5805 5804 5803 5803 5802 5802 5801 5801 5800 5800 5799 5799 5798 5798 5798 5797 5797 5796 5796 5795 5794 5794 5794 5792 5792 5793 5793 5791 5789 5788 5787 5786 5785 5785 5783 5782 5782 5783 5783 5782 5781 5780 5780 5779 5781 5781 5781 5782 5781 5781 5781 5782 5783 5783 5783 5783 5783 5784 5786 5788 5790 5790 5791 5791 5792 5795 5797 5795 5794 5795 5796 5797 5799 5800 5801 5802 5803 5803 5803
5805 5805 5805 5805 5805 5805 5806 5806 5806 5806 5805 5805 5804 5804 5804 5803 5803 5802 5802 5801 5800 5800 5799 5799 5799 5798 5798 5797 5797 5796 5795 5795 5794 5795 5796 5795 5792 5790 5790 5789 5789 5788 5787 5785 5784 5785 5785 5785 5785 5783 5782 5782 5781 5783 5784 5784 5783 5783 5784 5785 5785 5786 5786 5785 5786 5787 5788 5790 5793 5794 5794 5794 5794 5795 5797 5797 5796 5796 5797 5798 5799 5800 5802 5803 5803 5804 5804 5804
5805 5805 5805 5805 5805 5806 5806 5807 5807 5807 5807 5806 5806 5806 5806 5805 5804 5804 5803 5803 5802 5802 5801 5801 5800 5800 5799 5799 5798 5797 5796 5797 5797 5798 5798 5796 5794 5791 5791 5792 5791 5790 5788 5787 5788 5788 5788 5788 5787 5786 5784 5784 5785 5785 5786 5786 5785 5786 5787 5788 5788 5789 5790 5790 5791 5792 5793 5793 5795 5796 5797 5797 5797 5798 5798 5798 5798 5798 5799 5800 5801 5802 5803 5804 5805 5805 5805 5805
5805 5805 5805 5805 5806 5806 5807 5807 5808 5808 5808 5808 5807 5807 5807 5806 5806 5805 5805 5804 5804 5803 5803 5802 5802 5802 5801 5800 5799 5798 5798 5800 5800 5800 5800 5798 5796 5793 5793 5795 5793 5791 5790 5791 5792 5791 5792 5791 5789 5789 5787 5787 5788 5787 5788 5788 5788 5789 5791 5792 5792 5794 5794 5794 5795 5796 5797 5797 5797 5798 5798 5799 5799 5799 5799 5799 5799 5800 5801 5802 5803 5804 5804 5805 5806 5806 5806 5806
5805 5805 5805 5805 5806 5806 5807 5808 5808 5808 5809 5809 5809 5809 5809 5808 5807 5807 5806 5806 5805 5805 5804 5804 5804 5803 5802 5801 5800 5799 5802 5803 5802 5802 5801 5799 5798 5796 5796 5797 5795 5793 5794 5795 5794 5793 5794 5794 5792 5792 5791 5790 5790 5790 5789 5789 5792 5794 5795 5796 5796 5797 5798 5798 5799 5799 5799 5800 5800 5799 5800 5800 5801 5800 5800 5801 5801 5802 5803 5804 5805 5805 5806 5806 5807 5807 5807 5807
5805 5805 5805 5806 5806 5807 5807 5808 5808 5809 5809 5810 5810 5810 5810 5809 5809 5808 5808 5808 5807 5806 5806 5805 5805 5804 5804 5803 5801 5802 5805 5805 5804 5804 5803 5802 5800 5798 5798 5799 5797 5797 5797 5797 5798 5796 5796 5796 5794 5794 5794 5793 5793 5793 5793 5793 5796 5798 5798 5799 5800 5800 5801 5801 5802 5802 5802 5802 5802 5802 5802 5802 5802 5802 5803 5803 5803 5804 5805 5805 5807 5807 5807 5807 5808 5808 5808 5808
5805 5805 5805 5806 5806 5807 5808 5808 5809 5809 5810 5811 5811 5811 5811 5811 5810 5810 5809 5809 5808 5807 5807 5806 5806 5805 5805 5804 5804 5806 5808 5807 5806 5805 5805 5804 5801 5799 5801 5801 5800 5799 5799 5800 5800 5799 5798 5798 5798 5796 5797 5797 5796 5796 5797 5798 5800 5800 5800 5800 5802 5803 5803 5804 5804 5804 5804 5804 5804 5804 5804 5804 5804 5805 5806 5806 5807 5807 5807 5807 5808 5808 5809 5809 5809 5809 5809 5808
5805 5805 5805 5806 5807 5807 5808 5809 5809 5809 5810 5811 5811 5812 5812 5812 5811 5811 5810 5810 5809 5809 5808 5808 5807 5807 5807 5806 5807 5809 5809 5809 5808 5807 5807 5806 5802 5801 5803 5802 5802 5801 5802 5803 5802 5802 5802 5801 5800 5800 5800 5800 5800 5800 5800 5801 5803 5802 5802 5802 5804 5805 5805 5806 5807 5806 5806 5806 5806 5806 5806 5806 5807 5807 5809 5810 5809 5810 5810 5809 5809 5810 5810 5810 5810 5810 5809 5809
5805 5805 5805 5806 5807 5807 5808 5809 5809 5809 5810 5811 5812 5812 5812 5812 5812 5812 5812 5811 5811 5811 5810 5810 5810 5810 5809 5807 5809 5811 5811 5811 5810 5809 5810 5809 5805 5803 5805 5805 5804 5804 5806 5806 5804 5804 5804 5803 5802 5803 5803 5802 5802 5804 5803 5804 5805 5805 5805 5804 5806 5808 5808 5808 5809 5808 5808 5807 5808 5808 5808 5808 5809 5810 5811 5812 5811 5812 5811 5811 5811 5811 5811 5811 5811 5811 5811 5810
5805 5805 5805 5806 5807 5808 5808 5809 5810 5810 5810 5812 5812 5813 5813 5813 5813 5812 5813 5812 5812 5812 5812 5812 5812 5813 5811 5809 5811 5812 5813 5813 5812 5811 5811 5811 5808 5806 5807 5808 5807 5808 5809 5807 5807 5807 5806 5805 5806 5807 5807 5805 5804 5806 5807 5807 5807 5807 5807 5807 5809 5810 5810 5809 5810 5811 5811 5809 5809 5809 5810 5810 5811 5811 5813 5813 5813 5813 5812 5812 5812 5812 5812 5812 5812 5812 5812 5811
5805 5805 5806 5806 5806 5807 5808 5809 5810 5810 5811 5812 5812 5813 5813 5813 5813 5813 5814 5814 5814 5813 5813 5813 5812 5813 5813 5811 5812 5813 5814 5815 5814 5813 5812 5812 5810 5809 5810 5810 5810 5810 5810 5808 5809 5809 5807 5807 5807 5808 5810 5809 5808 5809 5808 5809 5809 5809 5809 5810 5812 5813 5813 5812 5813 5813 5812 5811 5810 5811 5812 5812 5812 5813 5813 5814 5814 5813 5813 5813 5813 5813 5813 5813 5813 5812 5812 5811
5805 5805 5805 5806 5806 5807 5808 5809 5810 5810 5811 5812 5812 5813 5813 5814 5814 5814 5814 5815 5815 5815 5814 5814 5813 5815 5815 5814 5814 5815 5816 5816 5815 5814 5814 5813 5812 5811 5813 5812 5811 5811 5811 5810 5811 5811 5810 5809 5808 5809 5811 5811 5811 5811 5810 5811 5811 5811 5811 5812 5813 5814 5814 5815 5815 5815 5814 5813 5812 5813 5814 5814 5814 5814 5813 5814 5814 5814 5814 5814 5814 5814 5814 5813 5813 5813 5812 5811
5804 5805 5805 5806 5807 5807 5808 5809 5810 5810 5811 5812 5812 5813 5814 5814 5814 5814 5815 5815 5816 5816 5816 5816 5816 5815 5816 5816 5816 5816 5817 5816 5816 5816 5815 5814 5813 5814 5814 5814 5813 5813 5812 5812 5815 5816 5815 5814 5812 5812 5814 5813 5813 5812 5811 5813 5813 5813 5813 5814 5815 5815 5815 5816 5816 5817 5816 5814 5814 5815 5815 5815 5815 5815 5814 5814 5815 5815 5815 5815 5815 5815 5814 5813 5813 5813 5813 5812
5804 5804 5805 5806 5807 5807 5808 5809 5810 5810 5811 5812 5812 5813 5814 5814 5814 5815 5815 5816 5816 5816 5816 5816 5816 5816 5817 5818 5818 5818 5818 5817 5817 5817 5817 5816 5815 5815 5815 5816 5815 5814 5814 5815 5819 5820 5819 5819 5816 5815 5817 5815 5814 5813 5812 5815 5816 5816 5815 5815 5818 5819 5818 5817 5817 5818 5817 5815 5816 5817 5817 5817 5817 5816 5816 5815 5816 5816 5816 5816 5816 5815 5815 5815 5814 5814 5813 5813
5804 5804 5804 5805 5806 5807 5808 5809 5810 5810 5811 5811 5812 5813 5814 5814 5815 5815 5815 5816 5816 5816 5815 5816 5817 5818 5819 5819 5819 5819 5819 5818 5818 5818 5818 5817 5817 5817 5817 5817 5816 5816 5818 5820 5821 5821 5820 5820 5818 5819 5820 5818 5817 5817 5816 5817 5818 5818 5816 5817 5821 5821 5820 5819 5818 5819 5818 5817 5818 5819 5818 5818 5818 5818 5818 5818 5817 5817 5817 5817 5816 5816 5816 5815 5815 5815 5814 5813
5803 5804 5804 5804 5805 5807 5808 5808 5809 5810 5811 5811 5812 5813 5813 5814 5815 5815 5815 5816 5816 5815 5816 5817 5818 5819 5819 5820 5820 5820 5819 5819 5819 5819 5819 5819 5818 5819 5818 5817 5818 5820 5822 5822 5821 5821 5821 5821 5822 5823 5823 5821 5822 5822 5820 5819 5820 5820 5820 5820 5821 5822 5821 5821 5820 5820 5820 5820 5820 5821 5821 5820 5819 5819 5820 5819 5818 5818 5818 5817 5817 5817 5817 5816 5815 5815 5814 5814
5803 5803 5804 5804 5805 5806 5807 5808 5809 5810 5811 5811 5812 5812 5813 5814 5815 5816 5816 5816 5816 5816 5816 5818 5819 5819 5820 5820 5820 5820 5820 5820 5821 5821 5820 5820 5820 5820 5819 5819 5820 5822 5824 5824 5823 5822 5823 5824 5825 5824 5823 5823 5825 5824 5821 5821 5822 5822 5822 5822 5822 5823 5822 5822 5822 5822 5822 5822 5822 5822 5822 5821 5821 5821 5820 5820 5819 5819 5819 5819 5818 5818 5817 5817 5816 5815 5815 5814
5802 5802 5803 5804 5804 5805 5806 5807 5808 5809 5810 5811 5811 5812 5813 5814 5814 5816 5817 5817 5817 5816 5816 5817 5819 5820 5820 5820 5820 5820 5821 5821 5822 5822 5821 5821 5821 5821 5821 5821 5821 5823 5826 5826 5824 5824 5825 5826 5825 5825 5826 5826 5827 5826 5823 5823 5823 5823 5824 5824 5824 5824 5824 5824 5824 5824 5823 5823 5823 5823 5823 5823 5823 5822 5821 5821 5821 5821 5820 5820 5819 5818 5817 5816 5816 5815 5815 5815
5800 5801 5802 5803 5803 5804 5805 5806 5807 5808 5810 5810 5810 5811 5812 5813 5814 5815 5816 5817 5817 5817 5817 5818 5819 5820 5820 5820 5821 5821 5821 5821 5821 5822 5821 5822 5822 5821 5822 5823 5823 5824 5826 5826 5825 5827 5827 5826 5825 5827 5829 5828 5828 5828 5826 5825 5825 5825 5827 5827 5826 5826 5825 5825 5825 5825 5825 5824 5824 5824 5824 5824 5824 5823 5822 5822 5822 5821 5821 5821 5820 5819 5818 5817 5816 5816 5815 5814
5799 5800 5801 5802 5802 5803 5804 5805 5806 5808 5809 5808 5808 5809 5811 5812 5813 5815 5815 5816 5817 5816 5817 5818 5819 5820 5820 5820 5821 5821 5822 5822 5821 5821 5822 5822 5822 5822 5822 5824 5825 5826 5826 5826 5826 5827 5827 5826 5826 5827 5828 5828 5829 5829 5828 5827 5827 5827 5828 5828 5827 5828 5826 5826 5826 5825 5826 5825 5825 5824 5824 5825 5824 5824 5823 5823 5823 5822 5821 5821 5820 5819 5818 5817 5817 5816 5815 5814
5797 5798 5799 5801 5801 5802 5803 5805 5806 5806 5806 5806 5806 5809 5810 5811 5812 5813 5814 5816 5816 5817 5817 5818 5819 5820 5820 5821 5821 5821 5823 5823 5822 5822 5822 5822 5822 5823 5823 5824 5825 5827 5826 5826 5827 5827 5827 5827 5827 5827 5828 5829 5829 5829 5828 5827 5827 5827 5828 5827 5828 5829 5827 5826 5826 5826 5825 5825 5826 5825 5825 5826 5825 5825 5825 5824 5823 5823 5822 5821 5820 5819 5818 5817 5816 5815 5815 5814
5796 5797 5798 5799 5800 5801 5802 5803 5804 5803 5804 5805 5806 5807 5808 5810 5811 5812 5813 5815 5815 5816 5817 5818 5818 5819 5819 5820 5820 5821 5823 5823 5823 5823 5823 5823 5823 5823 5824 5824 5825 5827 5826 5826 5828 5829 5828 5828 5827 5828 5830 5830 5829 5828 5827 5828 5827 5827 5828 5827 5828 5829 5828 5826 5825 5825 5825 5826 5827 5827 5826 5826 5825 5825 5825 5825 5824 5823 5823 5822 5820 5819 5818 5817 5816 5815 5814 5814
5794 5795 5796 5797 5799 5800 5801 5802 5802 5802 5804 5805 5805 5806 5807 5808 5810 5811 5813 5814 5815 5816 5817 5818 5818 5819 5819 5820 5821 5821 5822 5823 5823 5823 5823 5823 5824 5824 5824 5824 5825 5826 5826 5826 5828 5830 5828 5828 5827 5828 5830 5829 5827 5828 5828 5827 5828 5828 5828 5828 5828 5829 5830 5829 5826 5825 5826 5827 5827 5827 5826 5827 5826 5825 5826 5825 5824 5824 5824 5822 5821 5820 5819 5818 5816 5815 5814 5813
5792 5793 5795 5796 5797 5799 5800 5800 5800 5802 5803 5803 5804 5805 5806 5807 5808 5810 5811 5813 5815 5816 5817 5818 5818 5818 5819 5820 5820 5821 5822 5823 5823 5823 5824 5824 5824 5824 5824 5825 5825 5826 5826 5827 5829 5829 5827 5827 5828 5827 5828 5828 5827 5828 5828 5828 5828 5828 5828 5829 5830 5830 5831 5830 5827 5826 5827 5826 5826 5826 5827 5828 5827 5826 5826 5826 5825 5824 5824 5823 5821 5820 5819 5818 5817 5815 5814 5813
5790 5791 5793 5794 5796 5797 5798 5799 5800 5801 5802 5803 5803 5804 5804 5805 5807 5808 5809 5813 5815 5815 5815 5817 5817 5817 5818 5819 5820 5821 5821 5822 5823 5823 5824 5824 5825 5825 5825 5826 5826 5826 5827 5828 5829 5829 5828 5827 5828 5828 5828 5828 5828 5828 5828 5828 5828 5828 5829 5830 5830 5830 5829 5829 5828 5828 5828 5827 5826 5827 5828 5829 5828 5826 5826 5827 5826 5824 5823 5823 5821 5820 5819 5817 5816 5814 5813 5812
5788 5789 5791 5793 5794 5795 5796 5798 5800 5800 5801 5801 5802 5802 5803 5804 5805 5807 5809 5812 5813 5813 5814 5817 5817 5817 5818 5818 5821 5822 5822 5824 5825 5824 5824 5825 5825 5826 5826 5827 5828 5828 5828 5828 5828 5829 5829 5828 5828 5828 5828 5828 5829 5830 5830 5830 5829 5829 5831 5831 5830 5830 5830 5830 5830 5830 5830 5830 5828 5827 5828 5829 5828 5827 5827 5827 5826 5825 5823 5822 5821 5820 5819 5818 5816 5814 5813 5811
5786 5788 5789 5791 5792 5794 5795 5797 5798 5798 5799 5800 5800 5801 5801 5802 5803 5806 5809 5810 5811 5812 5814 5816 5817 5817 5818 5818 5821 5823 5823 5825 5826 5824 5825 5826 5826 5828 5828 5828 5829 5828 5828 5828 5828 5829 5830 5831 5829 5828 5829 5829 5829 5831 5832 5831 5831 5832 5832 5831 5830 5830 5830 5831 5831 5831 5830 5832 5831 5829 5829 5829 5828 5828 5827 5826 5826 5825 5824 5823 5822 5820 5819 5817 5816 5815 5813 5812
5784 5785 5787 5789 5790 5792 5794 5795 5796 5797 5798 5798 5799 5799 5799 5800 5802 5805 5807 5808 5810 5811 5812 5815 5817 5817 5818 5819 5820 5822 5823 5825 5825 5825 5826 5826 5827 5828 5828 5829 5828 5828 5828 5828 5828 5829 5830 5831 5830 5830 5830 5829 5829 5830 5830 5830 5831 5832 5833 5833 5832 5830 5831 5831 5831 5831 5831 5832 5833 5832 5830 5830 5829 5828 5827 5826 5825 5825 5825 5824 5822 5821 5819 5817 5816 5814 5813 5812
5781 5783 5785 5787 5789 5790 5792 5793 5794 5795 5796 5797 5797 5797 5798 5800 5803 5804 5806 5807 5809 5809 5810 5813 5815 5816 5817 5818 5819 5820 5822 5824 5825 5826 5827 5826 5827 5828 5828 5829 5829 5828 5829 5829 5828 5829 5829 5830 5830 5830 5830 5829 5830 5830 5830 5830 5830 5831 5832 5834 5833 5831 5832 5832 5831 5831 5831 5831 5832 5832 5830 5830 5830 5829 5827 5826 5826 5825 5824 5823 5822 5821 5819 5818 5817 5815 5814 5812
5779 5780 5782 5785 5787 5788 5790 5791 5793 5794 5795 5795 5796 5796 5797 5799 5802 5803 5805 5807 5809 5809 5809 5811 5813 5814 5815 5816 5817 5819 5821 5823 5823 5826 5827 5827 5827 5828 5829 5829 5829 5829 5830 5829 5829 5829 5829 5829 5829 5830 5830 5829 5830 5830 5830 5830 5830 5831 5831 5832 5832 5831 5832 5832 5832 5832 5831 5832 5832 5832 5831 5830 5829 5829 5828 5826 5825 5824 5823 5822 5821 5820 5819 5817 5816 5816 5815 5813
5776 5778 5780 5782 5784 5786 5788 5789 5791 5792 5793 5794 5795 5796 5798 5799 5800 5802 5804 5805 5807 5808 5808 5809 5812 5814 5815 5816 5817 5818 5821 5822 5822 5824 5826 5827 5827 5828 5829 5829 5828 5828 5829 5829 5830 5829 5829 5829 5830 5831 5830 5829 5829 5830 5830 5830 5830 5831 5831 5831 5831 5832 5832 5832 5832 5832 5832 5833 5833 5832 5833 5831 5830 5829 5828 5826 5825 5824 5823 5821 5820 5820 5819 5818 5816 5815 5815 5814
5773 5775 5777 5779 5782 5784 5785 5787 5789 5790 5791 5792 5794 5795 5797 5798 5799 5801 5803 5803 5806 5807 5806 5807 5809 5812 5814 5816 5817 5818 5820 5822 5822 5823 5825 5826 5825 5826 5828 5829 5827 5827 5828 5829 5830 5829 5829 5830 5831 5831 5831 5830 5829 5830 5830 5830 5830 5831 5831 5831 5831 5831 5831 5831 5832 5832 5833 5834 5833 5833 5833 5832 5829 5829 5827 5826 5825 5824 5823 5821 5820 5819 5819 5818 5817 5816 5815 5814
5770 5772 5774 5776 5779 5781 5783 5785 5786 5788 5789 5790 5793 5795 5796 5797 5798 5800 5802 5803 5804 5805 5805 5806 5808 5810 5812 5814 5816 5818 5819 5821 5822 5823 5825 5825 5825 5826 5828 5828 5826 5826 5827 5828 5829 5829 5829 5830 5831 5831 5831 5830 5830 5830 5830 5830 5830 5830 5830 5831 5831 5831 5831 5831 5832 5833 5833 5834 5835 5835 5834 5832 5830 5829 5827 5826 5825 5824 5823 5821 5820 5819 5818 5817 5817 5817 5816 5814
5766 5768 5770 5773 5777 5778 5780 5782 5783 5785 5787 5790 5792 5794 5795 5797 5798 5799 5801 5802 5803 5804 5805 5806 5808 5809 5811 5813 5815 5816 5818 5821 5823 5823 5825 5825 5824 5826 5826 5825 5825 5826 5827 5828 5828 5828 5828 5829 5829 5830 5831 5830 5830 5830 5830 5830 5830 5830 5829 5830 5831 5831 5831 5832 5832 5832 5833 5834 5835 5836 5834 5831 5830 5829 5827 5826 5826 5824 5823 5822 5820 5819 5819 5817 5816 5816 5816 5814
5763 5765 5767 5771 5774 5776 5777 5779 5781 5784 5786 5789 5791 5792 5794 5795 5796 5798 5800 5801 5802 5803 5804 5804 5805 5808 5810 5812 5814 5815 5816 5819 5821 5822 5823 5823 5824 5826 5825 5824 5825 5825 5826 5827 5827 5827 5827 5828 5828 5830 5830 5830 5829 5829 5829 5829 5829 5829 5829 5830 5830 5830 5831 5832 5832 5832 5832 5833 5833 5835 5833 5829 5828 5828 5827 5826 5825 5823 5822 5822 5820 5819 5819 5818 5817 5816 5816 5815
5760 5761 5763 5768 5770 5772 5774 5776 5779 5782 5784 5787 5790 5791 5792 5793 5794 5796 5798 5800 5801 5802 5803 5803 5804 5807 5809 5809 5810 5812 5813 5815 5818 5820 5821 5822 5824 5824 5822 5822 5824 5824 5825 5826 5826 5826 5826 5827 5827 5829 5829 5828 5828 5828 5828 5828 5828 5828 5829 5829 5829 5829 5830 5830 5830 5830 5831 5831 5832 5833 5831 5828 5828 5828 5826 5826 5825 5823 5822 5821 5819 5819 5819 5818 5817 5816 5815 5815
5755 5755 5758 5765 5767 5769 5772 5774 5776 5779 5782 5785 5788 5789 5791 5792 5793 5794 5796 5798 5800 5801 5802 5803 5805 5806 5807 5807 5807 5810 5812 5813 5815 5818 5820 5821 5822 5821 5819 5821 5822 5823 5823 5824 5825 5825 5825 5826 5826 5827 5827 5827 5827 5827 5827 5827 5827 5827 5827 5827 5828 5828 5828 5828 5829 5830 5830 5830 5830 5831 5829 5827 5827 5826 5825 5825 5824 5823 5822 5821 5819 5818 5818 5818 5817 5816 5815 5814
5751 5753 5758 5764 5765 5766 5769 5771 5774 5777 5780 5783 5785 5787 5788 5789 5791 5792 5794 5796 5798 5799 5800 5802 5804 5805 5806 5807 5807 5809 5811 5811 5812 5815 5817 5819 5819 5818 5818 5819 5821 5822 5822 5822 5823 5824 5824 5824 5825 5826 5827 5827 5826 5826 5826 5826 5826 5826 5826 5826 5827 5827 5828 5828 5828 5829 5829 5828 5829 5830 5828 5825 5825 5825 5824 5824 5823 5822 5822 5821 5819 5818 5817 5817 5816 5815 5815 5814
5748 5750 5755 5760 5761 5763 5767 5770 5772 5775 5777 5780 5782 5784 5785 5786 5788 5790 5792 5794 5795 5797 5799 5801 5803 5804 5804 5806 5807 5808 5810 5810 5811 5813 5815 5817 5817 5817 5817 5818 5819 5819 5819 5820 5822 5823 5822 5823 5823 5824 5825 5825 5825 5824 5824 5825 5825 5825 5825 5826 5826 5826 5826 5827 5827 5827 5828 5827 5827 5828 5826 5824 5824 5824 5823 5822 5822 5821 5820 5820 5819 5818 5817 5817 5816 5815 5814 5813
5744 5746 5749 5754 5756 5758 5763 5766 5768 5770 5773 5775 5778 5780 5781 5783 5786 5788 5790 5791 5793 5795 5797 5799 5800 5801 5803 5804 5805 5806 5809 5810 5811 5812 5813 5814 5815 5815 5815 5817 5817 5817 5818 5819 5820 5821 5821 5821 5822 5822 5822 5822 5823 5822 5822 5824 5824 5824 5825 5825 5825 5825 5825 5825 5825 5825 5826 5826 5825 5825 5824 5823 5822 5822 5822 5821 5821 5819 5819 5819 5818 5817 5817 5816 5815 5814 5814 5813
5738 5740 5743 5748 5751 5753 5758 5762 5764 5767 5770 5772 5774 5776 5778 5781 5784 5787 5788 5789 5791 5793 5794 5796 5797 5799 5801 5802 5803 5805 5807 5808 5809 5811 5812 5812 5813 5813 5813 5814 5815 5815 5817 5818 5818 5819 5820 5820 5820 5820 5821 5821 5821 5821 5821 5822 5823 5823 5823 5824 5824 5824 5824 5824 5824 5824 5824 5824 5823 5823 5823 5823 5821 5820 5820 5820 5819 5818 5818 5818 5817 5816 5816 5815 5814 5814 5813 5812
5732 5734 5738 5743 5746 5750 5754 5756 5759 5763 5766 5768 5771 5773 5775 5779 5782 5784 5785 5786 5788 5790 5791 5793 5795 5797 5799 5800 5802 5803 5805 5806 5807 5807 5809 5811 5811 5811 5811 5812 5812 5813 5815 5815 5815 5817 5818 5818 5818 5818 5819 5820 5820 5820 5820 5821 5821 5821 5821 5822 5822 5822 5822 5822 5822 5822 5823 5822 5821 5821 5822 5821 5820 5819 5818 5818 5818 5817 5817 5816 5816 5815 5814 5814 5814 5813 5812 5812
5729 5732 5736 5739 5743 5746 5749 5752 5756 5760 5762 5765 5767 5769 5772 5775 5778 5780 5781 5782 5785 5787 5789 5790 5792 5795 5797 5799 5800 5801 5802 5803 5804 5804 5806 5808 5808 5808 5809 5810 5810 5811 5812 5813 5813 5815 5816 5816 5816 5817 5818 5818 5818 5818 5819 5819 5819 5819 5820 5820 5820 5821 5820 5821 5821 5821 5821 5820 5819 5819 5820 5819 5819 5818 5817 5816 5816 5816 5815 5815 5815 5814 5813 5813 5812 5812 5811 5810
5726 5730 5734 5737 5740 5743 5746 5750 5753 5757 5760 5762 5764 5766 5769 5772 5774 5777 5778 5779 5782 5784 5785 5788 5791 5793 5795 5796 5797 5798 5798 5799 5801 5802 5803 5804 5805 5805 5806 5807 5808 5809 5810 5811 5811 5812 5814 5814 5814 5815 5816 5816 5817 5817 5817 5817 5817 5818 5818 5818 5818 5819 5818 5819 5819 5818 5818 5818 5818 5817 5817 5817 5816 5816 5816 5815 5815 5814 5814 5814 5813 5813 5812 5812 5811 5810 5809 5808
5721 5726 5729 5733 5736 5740 5743 5746 5749 5753 5756 5758 5760 5763 5765 5768 5771 5773 5773 5774 5778 5781 5782 5784 5786 5787 5789 5791 5793 5792 5792 5795 5798 5800 5801 5802 5802 5801 5803 5806 5807 5807 5808 5808 5808 5810 5812 5812 5812 5814 5814 5814 5815 5814 5814 5815 5815 5815 5816 5816 5816 5816 5816 5816 5816 5816 5816 5816 5816 5816 5815 5814 5814 5814 5814 5814 5813 5813 5813 5812 5812 5811 5811 5810 5809 5809 5808 5806
5717 5721 5723 5727 5731 5736 5740 5743 5745 5749 5751 5753 5755 5758 5760 5764 5766 5767 5768 5770 5774 5778 5779 5779 5780 5782 5785 5788 5788 5786 5787 5791 5796 5797 5798 5801 5801 5800 5801 5804 5805 5806 5806 5806 5806 5807 5809 5810 5810 5811 5812 5813 5813 5812 5812 5812 5813 5813 5813 5813 5814 5814 5814 5814 5814 5814 5814 5814 5814 5814 5813 5812 5812 5812 5812 5812 5812 5811 5811 5811 5810 5809 5809 5808 5808 5807 5806 5805